Location: Grasslands National Park East Block
(49.0708°N, 106.5295°W)
Time: 19:35:40
(UTC-06:00)

Vanguard 1 - Pass Details

Date: 26 September 2019
Orbit: 653 x 3830 km, 34.2° (Epoch: 18 October)

Event Time Altitude Azimuth Distance (km) Brightness Sun altitude
Rises 00:16:02 0° 208° (SSW) 6,936 - -41.3°
Reaches altitude 10° 00:21:02 10° 199° (SSW) 6,273 - -41.4°
Maximum altitude 00:38:39 33° 145° (SE) 5,183 - -41.9°
Exits shadow 00:45:39 29° 118° (ESE) 5,440 13.5 -42.0°
Drops below altitude 10° 00:56:53 10° 91° (E) 6,547 14.2 -42.1°
Sets 01:02:10 0° 83° (E) 7,269 14.6 -42.1°
